Greenwood, SC

1:16 AM EDT on April 27, 2018 (GMT -0400)
Greenwood County

Weather History for KGRD - March, 2013

Change the Weather History Date:

Friday, March 29, 2013

  Actual Average (KAND) Record (KAND)
Temperature  
Mean Temperature 46 °F -  
Max Temperature 64 °F 68 °F 85 °F (1989)
Min Temperature 28 °F 47 °F 28 °F (1966)
Degree Days  
Heating Degree Days 20    
Moisture  
Dew Point 27 °F    
Average Humidity 50    
Maximum Humidity 89    
Minimum Humidity 23    
Precipitation  
Precipitation 0.00 in - - ()
Sea Level Pressure  
Sea Level Pressure 30.30 in    
Wind  
Wind Speed 2 mph (WSW)    
Max Wind Speed 10 mph    
Max Gust Speed -    
Visibility 10 miles    
Events      
Averages and records for this station are not official NWS values.
T = Trace of Precipitation, MM = Missing Value Source: NWS Daily Summary

Daily Weather History Graph

Daily Weather History Graph

Search for Another Location

Airport or City:

Astronomy

Mar. 29, 2013 Rise Set
Actual Time 7:19 AM EDT 7:47 PM EDT
Civil Twilight 6:54 AM EDT 8:12 PM EDT
Nautical Twilight 6:24 AM EDT 8:42 PM EDT
Astronomical Twilight 5:54 AM EDT 9:12 PM EDT
Moon 10:37 PM EDT (3/29) 8:35 AM EDT (3/29)
Length of Visible Light 13h 18m
Length of Day
12h 27m
Waning Gibbous, 93% of the Moon is Illuminated
Mar 29
Waning Gibbous
Apr 3
Last Quarter
Apr 10
New
Apr 18
First Quarter
Apr 25
Full

Hourly Weather History & Observations

Time (EDT) Temp. Windchill Dew Point Humidity Pressure Visibility Wind Dir Wind Speed Gust Speed Precip Events Conditions
12:56 AM 39.0 °F 36.8 °F 24.1 °F 55% 30.32 in 10.0 mi NNE 3.5 mph - N/A   Clear
1:56 AM 36.0 °F - 24.1 °F 62% 30.32 in 10.0 mi Calm Calm - N/A   Clear
2:56 AM 33.1 °F - 26.1 °F 75% 30.32 in 10.0 mi Calm Calm - N/A   Clear
3:56 AM 32.0 °F - 26.1 °F 79% 30.32 in 10.0 mi Calm Calm - N/A   Clear
4:56 AM 30.0 °F - 25.0 °F 82% 30.32 in 10.0 mi Calm Calm - N/A   Clear
5:56 AM 28.9 °F - 25.0 °F 85% 30.33 in 10.0 mi Calm Calm - N/A   Clear
6:56 AM 28.0 °F - 25.0 °F 88% 30.35 in 10.0 mi Calm Calm - N/A   Clear
7:56 AM 28.9 °F - 26.1 °F 89% 30.36 in 10.0 mi Calm Calm - N/A   Clear
8:56 AM 39.9 °F - 27.0 °F 60% 30.36 in 10.0 mi Calm Calm - N/A   Clear
9:56 AM 48.9 °F - 27.0 °F 43% 30.37 in 10.0 mi SE 5.8 mph - N/A   Clear
10:56 AM 53.1 °F - 26.1 °F 35% 30.37 in 10.0 mi Variable 3.5 mph - N/A   Clear
11:56 AM 57.0 °F - 23.0 °F 27% 30.36 in 10.0 mi SW 6.9 mph - N/A   Clear
12:56 PM 59.0 °F - 21.9 °F 24% 30.33 in 10.0 mi SSW 6.9 mph - 0.00 in   Clear
1:56 PM 60.1 °F - 21.9 °F 23% 30.29 in 10.0 mi SE 4.6 mph - 0.00 in   Clear
2:56 PM 63.0 °F - 25.0 °F 24% 30.26 in 10.0 mi SW 9.2 mph - 0.00 in   Overcast
3:56 PM 62.1 °F - 24.1 °F 23% 30.24 in 10.0 mi West 10.4 mph - 0.00 in   Overcast
4:56 PM 62.1 °F - 27.0 °F 26% 30.24 in 10.0 mi WNW 5.8 mph - N/A   Overcast
5:56 PM 61.0 °F - 26.1 °F 26% 30.24 in 10.0 mi North 6.9 mph - N/A   Overcast
6:56 PM 59.0 °F - 27.0 °F 29% 30.24 in 10.0 mi NNE 4.6 mph - N/A   Mostly Cloudy
7:56 PM 55.9 °F - 30.0 °F 37% 30.24 in 10.0 mi Calm Calm - N/A   Overcast
8:56 PM 53.1 °F - 32.0 °F 45% 30.24 in 10.0 mi Calm Calm - N/A   Overcast
9:56 PM 52.0 °F - 32.0 °F 47% 30.25 in 10.0 mi Calm Calm - N/A   Overcast
10:56 PM 50.0 °F - 35.1 °F 57% 30.25 in 10.0 mi Calm Calm - N/A   Overcast
11:56 PM 52.0 °F - 35.1 °F 53% 30.23 in 10.0 mi Calm Calm - N/A   Overcast